When you browse on this site, cookies collect data to enhance your experience and personalize the content and advertising you see.
Visit our Privacy Policy to learn more. By continuing to use the site, you agree to this use of cookies and data.

Hourly Weather Volokovaya

Today, 6 August, Thursday

Time Temperature Precipitation Wind Pressure Humidity
00:00 +18°C° 0 mm 2 mps 748 mmHg 96%
01:00 +18°C° 0 mm 2 mps 748 mmHg 97%
02:00 +17°C° 0 mm 2 mps 749 mmHg 97%
03:00 +17°C° 0.1 mm 2 mps 749 mmHg 98%
04:00 +17°C° 0.1 mm 2 mps 749 mmHg 98%
05:00 +17°C° 0.1 mm 2 mps 749 mmHg 98%
06:00 +18°C° 0 mm 2 mps 749 mmHg 95%
07:00 +19°C° 0 mm 2 mps 750 mmHg 92%
08:00 +20°C° 0 mm 3 mps 751 mmHg 89%
09:00 +21°C° 0 mm 3 mps 751 mmHg 80%
10:00 +22°C° 0 mm 3 mps 751 mmHg 72%
11:00 +24°C° 0 mm 3 mps 751 mmHg 64%
12:00 +25°C° 0 mm 3 mps 751 mmHg 61%
13:00 +25°C° 0 mm 3 mps 751 mmHg 58%
14:00 +26°C° 0 mm 3 mps 751 mmHg 55%
15:00 +25°C° 0 mm 2 mps 751 mmHg 58%
16:00 +25°C° 0 mm 2 mps 751 mmHg 62%
17:00 +25°C° 0 mm 2 mps 751 mmHg 65%
18:00 +23°C° 0 mm 2 mps 752 mmHg 69%
19:00 +21°C° 0 mm 1 mps 752 mmHg 72%
20:00 +19°C° 0 mm 1 mps 752 mmHg 76%
21:00 +19°C° 0 mm 1 mps 752 mmHg 78%
22:00 +18°C° 0 mm 1 mps 752 mmHg 80%
23:00 +16°C° 0 mm 1 mps 752 mmHg 81%

Tomorrow, 7 August, Friday

Time Temperature Precipitation Wind Pressure Humidity
00:00 +16°C° 0 mm 1 mps 753 mmHg 83%
01:00 +16°C° 0 mm 2 mps 753 mmHg 84%
02:00 +15°C° 0 mm 2 mps 753 mmHg 86%
03:00 +15°C° 0 mm 2 mps 753 mmHg 87%
04:00 +15°C° 0 mm 2 mps 753 mmHg 88%
05:00 +14°C° 0 mm 2 mps 753 mmHg 89%
06:00 +16°C° 0 mm 2 mps 753 mmHg 84%
07:00 +18°C° 0 mm 2 mps 753 mmHg 79%
08:00 +20°C° 0 mm 2 mps 754 mmHg 74%
09:00 +21°C° 0 mm 2 mps 754 mmHg 70%
10:00 +23°C° 0 mm 2 mps 754 mmHg 67%
11:00 +24°C° 0 mm 2 mps 754 mmHg 63%
12:00 +25°C° 0 mm 2 mps 753 mmHg 63%
13:00 +25°C° 0 mm 2 mps 753 mmHg 63%
14:00 +25°C° 0 mm 2 mps 753 mmHg 63%
15:00 +25°C° 0.1 mm 2 mps 753 mmHg 66%
16:00 +25°C° 0.1 mm 2 mps 753 mmHg 70%
17:00 +24°C° 0.1 mm 2 mps 752 mmHg 74%
18:00 +23°C° 0.1 mm 2 mps 752 mmHg 78%
19:00 +20°C° 0.1 mm 2 mps 752 mmHg 82%
20:00 +19°C° 0.1 mm 2 mps 752 mmHg 86%
21:00 +18°C° 0 mm 2 mps 752 mmHg 88%
22:00 +18°C° 0 mm 1 mps 752 mmHg 91%
23:00 +18°C° 0 mm 1 mps 752 mmHg 94%

Day after tomorrow, 8 August, Saturday

Time Temperature Precipitation Wind Pressure Humidity
00:00 +16°C° 0 mm 1 mps 752 mmHg 94%
01:00 +16°C° 0 mm 1 mps 752 mmHg 94%
02:00 +15°C° 0 mm 1 mps 752 mmHg 95%
03:00 +15°C° 0 mm 1 mps 752 mmHg 95%
04:00 +15°C° 0 mm 1 mps 752 mmHg 95%
05:00 +15°C° 0 mm 1 mps 752 mmHg 95%
06:00 +16°C° 0 mm 1 mps 752 mmHg 91%
07:00 +18°C° 0 mm 2 mps 752 mmHg 86%
08:00 +20°C° 0 mm 2 mps 752 mmHg 81%
09:00 +21°C° 0 mm 2 mps 752 mmHg 76%
10:00 +23°C° 0 mm 2 mps 752 mmHg 70%
11:00 +25°C° 0 mm 2 mps 752 mmHg 65%
12:00 +25°C° 0.1 mm 2 mps 751 mmHg 64%
13:00 +25°C° 0.1 mm 1 mps 751 mmHg 63%
14:00 +26°C° 0.1 mm 1 mps 751 mmHg 62%
15:00 +25°C° 0.2 mm 2 mps 750 mmHg 67%
16:00 +25°C° 0.2 mm 2 mps 750 mmHg 72%
17:00 +24°C° 0.2 mm 2 mps 750 mmHg 76%
18:00 +23°C° 0 mm 2 mps 749 mmHg 80%
19:00 +21°C° 0 mm 2 mps 749 mmHg 84%
20:00 +19°C° 0 mm 2 mps 749 mmHg 88%
21:00 +18°C° 0 mm 2 mps 749 mmHg 89%
22:00 +18°C° 0 mm 2 mps 749 mmHg 91%
23:00 +17°C° 0 mm 2 mps 749 mmHg 92%

9 August, Sunday

Time Temperature Precipitation Wind Pressure Humidity
00:00 +17°C° 0 mm 2 mps 749 mmHg 93%
01:00 +17°C° 0 mm 2 mps 749 mmHg 94%
02:00 +16°C° 0 mm 2 mps 749 mmHg 94%
03:00 +16°C° 0 mm 2 mps 749 mmHg 95%
04:00 +16°C° 0 mm 2 mps 749 mmHg 95%
05:00 +16°C° 0 mm 2 mps 749 mmHg 96%
06:00 +17°C° 0 mm 2 mps 749 mmHg 91%
07:00 +19°C° 0 mm 2 mps 748 mmHg 87%
08:00 +20°C° 0 mm 2 mps 748 mmHg 83%
09:00 +23°C° 0.6 mm 2 mps 748 mmHg 79%
10:00 +24°C° 0.6 mm 2 mps 748 mmHg 75%
11:00 +25°C° 0.6 mm 2 mps 748 mmHg 72%
12:00 +25°C° 0.9 mm 2 mps 748 mmHg 70%
13:00 +26°C° 0.9 mm 2 mps 748 mmHg 68%
14:00 +26°C° 0.9 mm 2 mps 747 mmHg 65%
15:00 +26°C° 0.4 mm 2 mps 747 mmHg 69%
16:00 +25°C° 0.4 mm 2 mps 747 mmHg 72%
17:00 +25°C° 0.4 mm 1 mps 747 mmHg 76%
18:00 +24°C° 0.1 mm 1 mps 747 mmHg 80%
19:00 +22°C° 0.1 mm 1 mps 747 mmHg 84%
20:00 +20°C° 0.1 mm 1 mps 747 mmHg 87%
21:00 +20°C° 0.2 mm 1 mps 747 mmHg 89%
22:00 +19°C° 0.2 mm 1 mps 747 mmHg 90%
23:00 +19°C° 0.2 mm 1 mps 747 mmHg 92%

10 August, Monday

Time Temperature Precipitation Wind Pressure Humidity
00:00 +19°C° 0.1 mm 1 mps 747 mmHg 92%
01:00 +18°C° 0.1 mm 1 mps 747 mmHg 92%
02:00 +18°C° 0.1 mm 1 mps 747 mmHg 93%
03:00 +18°C° 0 mm 1 mps 747 mmHg 93%
04:00 +16°C° 0 mm 1 mps 747 mmHg 93%
05:00 +16°C° 0 mm 1 mps 747 mmHg 94%
06:00 +19°C° 0 mm 1 mps 747 mmHg 90%
07:00 +20°C° 0 mm 1 mps 747 mmHg 87%
08:00 +21°C° 0 mm 2 mps 747 mmHg 84%
09:00 +23°C° 0.4 mm 2 mps 747 mmHg 78%
10:00 +24°C° 0.4 mm 2 mps 747 mmHg 72%
11:00 +26°C° 0.4 mm 2 mps 747 mmHg 65%
12:00 +27°C° 0.3 mm 2 mps 747 mmHg 62%
13:00 +27°C° 0.3 mm 2 mps 746 mmHg 58%
14:00 +28°C° 0.3 mm 2 mps 746 mmHg 55%
15:00 +28°C° 0 mm 1 mps 746 mmHg 58%
16:00 +28°C° 0 mm 1 mps 746 mmHg 61%
17:00 +27°C° 0 mm 1 mps 746 mmHg 65%
18:00 +25°C° 0.1 mm 1 mps 746 mmHg 68%
19:00 +23°C° 0.1 mm 1 mps 745 mmHg 72%
20:00 +21°C° 0.1 mm 1 mps 745 mmHg 76%
21:00 +20°C° 0.5 mm 1 mps 745 mmHg 79%
22:00 +20°C° 0.5 mm 1 mps 745 mmHg 83%
23:00 +19°C° 0.5 mm 1 mps 745 mmHg 87%

11 August, Tuesday

Time Temperature Precipitation Wind Pressure Humidity
00:00 +18°C° 0.3 mm 1 mps 745 mmHg 88%
01:00 +18°C° 0.3 mm 1 mps 745 mmHg 89%
02:00 +18°C° 0.3 mm 1 mps 745 mmHg 90%
03:00 +18°C° 0.2 mm 1 mps 745 mmHg 91%
04:00 +18°C° 0.2 mm 1 mps 745 mmHg 91%
05:00 +18°C° 0.2 mm 1 mps 745 mmHg 91%
06:00 +19°C° 0 mm 1 mps 745 mmHg 89%
07:00 +19°C° 0 mm 2 mps 745 mmHg 87%
08:00 +20°C° 0 mm 2 mps 745 mmHg 86%
09:00 +23°C° 0.8 mm 2 mps 745 mmHg 82%
10:00 +24°C° 0.8 mm 2 mps 745 mmHg 78%
11:00 +25°C° 0.8 mm 2 mps 745 mmHg 74%
12:00 +25°C° 1.2 mm 2 mps 745 mmHg 74%
13:00 +25°C° 1.2 mm 2 mps 745 mmHg 74%
14:00 +25°C° 1.2 mm 3 mps 745 mmHg 73%
15:00 +25°C° 0.5 mm 3 mps 745 mmHg 76%
16:00 +24°C° 0.5 mm 3 mps 744 mmHg 79%
17:00 +24°C° 0.5 mm 3 mps 744 mmHg 82%
18:00 +21°C° 0 mm 3 mps 745 mmHg 85%
19:00 +20°C° 0 mm 3 mps 745 mmHg 89%
20:00 +18°C° 0 mm 2 mps 745 mmHg 92%
21:00 +18°C° 0 mm 2 mps 745 mmHg 93%
22:00 +17°C° 0 mm 2 mps 745 mmHg 94%
23:00 +16°C° 0 mm 2 mps 745 mmHg 95%
Show more